Lid_Strength_Index
1 1 1 2 2 2 2 3 3 3 3 3 3 3 4 4 4 3 3 3 3 3 4 4 4 3 3 8 8 0 -2 -1 -0 2 4 5 5 5 7 6 5 6 5 6 5 6 6
1 1 2 2 2 2 3 3 3 3 3 3 3 4 4 4 4 4 3 3 3 4 4 4 4 3 6 9 5 -1 -0 1 2 4 4 3 4 4 5 5 7 6 6 6 6 6 6
2 2 2 2 2 2 3 3 3 3 3 3 3 4 4 4 4 4 3 3 3 3 3 3 3 3 7 8 2 1 2 4 2 2 4 2 2 4 5 6 7 7 8 7 7 6 6
2 2 2 2 2 3 3 3 3 3 3 4 4 4 4 4 4 4 4 4 2 3 3 3 2 3 8 5 1 3 3 3 3 2 3 2 1 4 6 6 7 8 8 9 7 6 6
2 2 2 2 2 3 3 3 3 3 4 4 4 4 4 4 4 4 4 4 2 2 2 2 3 5 6 2 4 3 3 4 2 3 2 3 4 6 6 8 9 8 10 10 9 7 7
2 2 2 2 2 3 3 3 3 3 4 4 4 4 4 5 5 5 5 4 2 2 2 1 2 6 4 6 4 5 3 3 5 6 6 6 6 6 7 8 11 11 10 10 10 7 7
2 2 2 2 2 3 3 3 3 3 4 4 4 4 4 5 5 5 5 5 6 6 7 8 7 6 5 5 5 5 3 3 6 6 8 8 8 9 9 9 9 10 10 10 8 8 8
2 2 3 3 3 3 3 4 4 3 4 4 4 4 4 5 5 5 5 6 6 6 8 7 7 7 6 6 7 6 5 6 7 9 8 8 9 8 9 9 10 10 10 10 8 8 8
2 2 3 3 3 3 4 4 4 4 4 4 4 4 5 5 5 5 5 6 5 7 8 7 7 7 7 6 7 6 5 6 8 9 9 9 8 8 8 9 9 9 9 9 10 8 8
3 3 3 3 3 4 4 4 4 4 4 4 4 4 5 6 5 6 5 5 5 6 8 8 7 6 7 6 7 5 5 6 8 9 9 9 8 8 8 8 9 10 8 9 9 9 10
5 5 5 4 4 4 4 4 4 4 4 4 4 4 5 6 5 6 6 5 6 6 12 7 7 5 6 7 7 6 5 6 8 8 8 9 8 9 9 8 8 9 8 9 9 9 10
5 5 5 5 5 5 4 4 4 4 4 4 4 5 6 5 6 5 5 5 6 9 13 9 8 8 8 8 7 6 6 5 6 8 8 9 7 7 7 7 8 8 8 9 9 10 12
5 5 6 5 6 5 5 5 4 4 4 4 5 6 5 5 5 4 5 5 9 11 8 9 9 8 9 8 8 8 8 8 8 10 9 8 8 7 7 8 8 8 9 12 12 12 12
6 6 6 6 6 6 5 5 5 5 4 5 6 6 5 4 4 4 5 7 11 10 10 8 9 9 9 8 8 9 9 9 8 9 9 10 11 8 7 8 9 10 10 12 15 13 12
6 6 6 6 6 6 6 5 5 5 5 5 7 5 4 4 4 5 6 10 10 10 9 9 9 9 9 9 8 8 9 9 8 8 10 10 11 8 8 7 8 9 10 9 12 11 13
7 7 7 7 7 7 6 6 5 5 5 5 6 6 5 4 4 6 8 11 9 8 8 8 10 9 10 9 8 8 9 8 8 8 7 8 11 8 8 7 6 7 7 10 10 15 16
6 6 6 6 6 6 6 6 5 5 5 6 6 6 4 4 5 6 9 9 9 7 7 8 9 9 9 9 9 9 9 8 7 7 6 7 8 9 8 8 9 8 9 9 9 11 14
6 6 6 6 6 6 6 6 5 5 5 6 7 8 4 4 6 10 8 9 9 7 7 8 7 8 8 8 9 8 9 8 6 6 8 8 8 10 9 7 7 7 9 9 11 13 12
6 6 6 6 6 7 6 6 6 6 5 6 7 7 4 5 8 8 8 8 7 7 7 7 8 8 7 8 9 8 8 6 5 6 7 7 9 12 11 8 7 9 8 8 9 10 12
7 7 7 7 6 6 6 6 6 5 5 6 7 8 5 6 7 8 8 8 8 6 7 7 8 7 8 8 7 8 8 7 6 6 5 5 9 10 12 11 9 10 9 8 8 11 11
6 6 6 6 7 6 6 6 6 6 5 6 8 8 8 9 7 7 8 8 8 8 7 7 8 8 8 9 9 8 8 8 7 5 6 6 10 9 8 8 8 8 9 8 9 9 11
6 6 6 6 6 6 6 6 6 6 6 6 7 7 6 7 8 8 9 8 8 8 8 8 8 8 8 8 8 8 8 8 8 7 7 8 9 9 10 8 8 10 8 8 8 8 9
5 5 5 5 6 6 6 6 6 6 5 6 6 6 6 8 8 8 8 8 8 7 6 6 7 8 8 8 6 6 6 7 6 7 8 8 9 10 12 10 10 11 9 8 8 8 9
4 4 5 5 6 6 6 6 6 6 5 5 6 6 8 9 8 8 8 7 8 7 8 6 6 7 6 5 6 6 6 7 7 7 7 8 9 10 11 11 15 9 8 8 9 9 8
3 4 4 4 5 5 5 5 5 5 5 5 5 6 7 9 8 7 7 7 6 6 7 6 6 5 5 6 7 9 8 8 8 7 7 8 8 11 12 12 10 9 9 10 10 10 8
3 3 3 4 4 4 5 5 5 5 4 4 4 3 6 8 9 7 7 7 8 8 7 6 4 4 5 6 8 11 12 10 10 9 7 8 8 10 13 15 15 11 8 7 7 12 7
3 3 3 3 3 3 4 4 4 4 4 4 3 3 5 8 6 6 7 7 6 7 7 7 6 6 5 7 10 11 11 8 11 11 10 11 12 13 13 14 12 8 7 6 13 11 7
2 2 2 2 3 3 3 4 4 4 3 3 3 2 4 7 6 5 4 6 6 6 8 6 7 7 7 9 9 9 10 9 10 9 11 11 13 13 13 15 15 7 8 11 8 6 6
1 2 2 2 2 2 2 2 3 3 3 3 4 1 2 6 6 4 4 3 3 4 5 5 6 7 6 8 8 8 10 9 11 13 9 13 10 10 11 10 7 6 6 5 5 6 6